Weather in Nizhniy Odes

Russia / Komi Republic     63°38′20″N   54°50′45″E
temp.,
°C
wind,
m/s
gust,
m/s
humid.,
%
clouds,
%
prec.,
mm/h
press.,
hPa
HPBL,
m
17 april, sat
sat1700:00+1wnw5118186 0.2 1024986
03:000wnw51288100 0.3 10241067
06:000wnw4985100 0.1 1024935
09:00+2w51192100 0.3 10211022
12:00+3w61484100 0.3 10181324
15:00+3wnw71687100 0.7 10171548
18:000nnw61193100 2.1 10181003
21:00−3nnw5127323 2.2 10221103
18 april, sun
sun1800:00−5nnw51186100 0.0 1026780
03:00−5n51088100 0.1 1029790
06:00−6nne597526 0.1 1033619
09:00−4nne46460 0.1 1035849
12:00−2n45400 0.0 10371284
15:00−1n45405 0.0 10371440
18:00−3n35535 0.0 10381133
21:00−4n266915 0.0 1039415
19 april, mon
mon1900:00−5nne13735 0.0 1039283
03:00−5nw127813 0.0 1040175
06:00−4nw236512 0.0 1040624
09:00−1wnw23515 0.0 1039983
12:00+1w34405 0.0 10371176
15:00+3w35385 0.0 10361267
18:00+1wsw2658100 0.0 1035125
21:00−1w3106655 0.0 1034234
20 april, tue
tue2000:00−1w31067100 0.0 1034251
03:00−1w3106977 0.0 1034265
06:00+1w3106231 0.0 1033345
09:00+5wnw474974 0.0 1032744
12:00+7wnw474768 0.0 10321159
15:00+8wnw36505 0.0 10311278
18:00+6wnw22675 0.0 103125
21:00+3nw11805 0.0 103210
21 april, wed
wed2100:00+1wsw00865 0.0 103210
03:00+1ssw11885 0.0 103310
06:00+3ssw12770 0.0 1033108
09:00+7s235740 0.0 1032535
12:00+9ssw3443100 0.0 10311083
15:00+11s353963 0.0 10291251
18:00+9sse494999 0.0 1028408
21:00+7sse41359100 0.0 1027460